Total_Precipitation_Accumulation
1.37 1.32 1.18 1.16 1.08 0.95 0.91 0.86 0.79 0.74 0.67 0.59 0.51 0.46 0.45 0.44 0.43 0.45 0.41 0.35 0.42 0.67 0.98 1.14 1.16 1.21 1.26 1.31 1.33 1.26 1.17 1.11 1.02 0.94 0.87 0.84 0.85 0.86 0.86 0.85 0.85 0.86 0.87
1.53 1.39 1.26 1.20 1.15 1.03 0.93 0.92 0.86 0.83 0.78 0.71 0.62 0.53 0.46 0.45 0.42 0.43 0.44 0.40 0.40 0.48 0.72 0.98 1.13 1.31 1.49 1.60 1.55 1.46 1.34 1.29 1.23 1.14 1.03 0.92 0.90 0.89 0.89 0.89 0.86 0.85 0.89
1.72 1.63 1.41 1.25 1.19 1.18 1.17 1.12 1.08 0.95 0.85 0.78 0.72 0.66 0.58 0.53 0.48 0.43 0.44 0.43 0.41 0.40 0.51 0.76 1.00 1.22 1.47 1.66 1.68 1.63 1.52 1.40 1.36 1.31 1.20 1.09 0.99 0.93 0.92 0.91 0.91 0.91 0.92
1.94 1.85 1.69 1.47 1.38 1.39 1.36 1.28 1.17 1.11 0.95 0.82 0.75 0.71 0.65 0.60 0.53 0.48 0.44 0.41 0.38 0.35 0.41 0.56 0.75 0.98 1.26 1.47 1.63 1.67 1.62 1.49 1.40 1.36 1.27 1.17 1.12 1.09 1.07 1.06 1.03 1.03 1.05
2.14 1.98 1.78 1.66 1.66 1.61 1.49 1.40 1.27 1.26 1.20 1.01 0.85 0.78 0.74 0.68 0.60 0.54 0.49 0.45 0.41 0.36 0.36 0.43 0.53 0.62 0.86 1.17 1.46 1.70 1.78 1.71 1.59 1.49 1.42 1.33 1.28 1.27 1.24 1.23 1.22 1.21 1.25
2.51 2.33 1.99 1.84 1.84 1.83 1.74 1.61 1.53 1.43 1.37 1.35 1.19 0.93 0.79 0.75 0.71 0.63 0.56 0.50 0.46 0.40 0.37 0.39 0.44 0.47 0.55 0.79 1.14 1.49 1.77 1.88 1.79 1.68 1.60 1.55 1.49 1.45 1.46 1.48 1.48 1.48 1.50
2.61 2.69 2.41 2.16 2.09 2.03 1.99 1.93 1.90 1.82 1.63 1.59 1.57 1.30 1.00 0.84 0.79 0.70 0.65 0.62 0.55 0.51 0.48 0.45 0.47 0.48 0.52 0.67 0.86 1.06 1.37 1.70 1.85 1.85 1.77 1.71 1.69 1.69 1.74 1.77 1.77 1.72 1.71
2.69 2.72 2.77 2.57 2.28 2.21 2.19 2.19 2.10 1.95 1.88 1.84 1.79 1.71 1.50 1.27 0.97 0.79 0.74 0.69 0.65 0.62 0.59 0.58 0.58 0.58 0.58 0.66 0.72 0.79 0.95 1.28 1.64 1.87 1.90 1.85 1.82 1.82 1.93 2.06 2.14 2.13 2.07
2.82 2.74 2.69 2.72 2.60 2.43 2.32 2.32 2.39 2.36 2.21 2.10 2.00 2.06 1.81 1.49 1.19 0.97 0.87 0.83 0.81 0.79 0.74 0.72 0.72 0.71 0.71 0.70 0.67 0.69 0.75 0.95 1.29 1.74 2.06 2.18 2.14 2.15 2.25 2.34 2.42 2.52 2.49
2.89 2.81 2.79 2.76 2.73 2.63 2.47 2.43 2.50 2.55 2.58 2.48 2.32 2.13 1.91 1.60 1.48 1.24 1.00 0.97 1.02 1.01 0.97 0.90 0.86 0.84 0.82 0.80 0.78 0.78 0.81 0.87 1.15 1.61 2.13 2.47 2.60 2.73 2.90 2.94 3.02 3.11 3.03
3.01 2.91 2.84 2.83 2.82 2.75 2.67 2.61 2.60 2.62 2.62 2.60 2.53 2.36 2.18 1.86 1.59 1.50 1.28 1.12 1.17 1.13 1.12 1.07 1.00 0.95 0.93 0.90 0.86 0.91 1.04 1.07 1.26 1.61 2.12 2.67 3.01 3.21 3.41 3.50 3.58 3.64 3.64
2.84 2.79 2.82 2.77 2.74 2.71 2.62 2.58 2.58 2.58 2.60 2.52 2.42 2.30 2.23 2.07 1.82 1.73 1.56 1.34 1.33 1.30 1.30 1.26 1.18 1.09 1.04 0.98 0.96 1.15 1.15 1.18 1.34 1.61 2.04 2.55 2.93 3.21 3.41 3.57 3.69 3.72 3.81
2.54 2.48 2.55 2.61 2.61 2.58 2.58 2.56 2.53 2.44 2.46 2.49 2.38 2.24 2.10 1.88 1.74 1.81 1.82 1.63 1.46 1.32 1.33 1.34 1.29 1.29 1.26 1.24 1.23 1.39 1.29 1.32 1.38 1.62 1.96 2.34 2.49 2.60 2.76 2.95 3.20 3.34 3.43
2.32 2.32 2.37 2.45 2.53 2.57 2.53 2.56 2.52 2.40 2.35 2.32 2.30 2.23 2.16 1.98 1.80 1.74 1.78 1.88 1.84 1.58 1.39 1.28 1.24 1.35 1.44 1.47 1.56 1.66 1.40 1.55 1.52 1.57 1.78 1.99 2.05 2.01 2.10 2.33 2.60 2.82 2.97
2.18 2.23 2.35 2.35 2.34 2.40 2.40 2.39 2.39 2.26 2.17 2.13 2.08 2.10 2.09 2.00 1.93 1.83 1.80 1.93 2.21 2.17 1.77 1.44 1.39 1.45 1.55 1.59 1.73 1.59 1.36 1.56 1.61 1.56 1.61 1.66 1.69 1.68 1.70 1.85 2.04 2.24 2.36
2.00 2.01 2.11 2.22 2.21 2.20 2.27 2.33 2.22 2.08 2.02 1.90 1.82 1.86 1.90 1.90 1.95 1.96 1.95 1.97 2.11 2.31 2.11 1.58 1.43 1.46 1.55 1.58 1.72 1.55 1.44 1.65 1.55 1.49 1.48 1.48 1.46 1.45 1.48 1.55 1.69 1.86 2.02
1.85 1.81 1.88 1.94 1.95 1.93 1.96 2.06 2.07 2.01 1.97 1.89 1.79 1.70 1.66 1.71 1.84 1.91 2.00 2.03 2.07 2.18 2.18 1.70 1.41 1.37 1.45 1.45 1.44 1.35 1.34 1.36 1.32 1.45 1.38 1.34 1.35 1.34 1.34 1.39 1.48 1.59 1.72
1.75 1.72 1.75 1.81 1.81 1.79 1.78 1.80 1.80 1.81 1.86 1.86 1.83 1.79 1.70 1.68 1.81 1.89 2.00 2.03 1.98 1.93 1.96 1.78 1.46 1.33 1.31 1.27 1.25 1.21 1.18 1.17 1.16 1.38 1.38 1.33 1.32 1.30 1.25 1.27 1.34 1.42 1.52
1.69 1.71 1.66 1.69 1.70 1.72 1.75 1.75 1.73 1.72 1.70 1.72 1.79 1.85 1.80 1.81 1.84 1.82 1.82 1.81 1.76 1.68 1.63 1.60 1.43 1.28 1.25 1.24 1.28 1.21 1.12 1.08 1.05 1.19 1.26 1.26 1.32 1.34 1.29 1.28 1.32 1.36 1.36
1.54 1.62 1.59 1.55 1.59 1.64 1.70 1.73 1.79 1.84 1.81 1.77 1.77 1.82 1.82 1.83 1.78 1.76 1.75 1.69 1.64 1.63 1.59 1.57 1.49 1.35 1.26 1.22 1.29 1.29 1.22 1.10 1.05 1.01 1.14 1.16 1.23 1.33 1.35 1.25 1.15 1.15 1.15
1.47 1.51 1.55 1.52 1.54 1.62 1.72 1.76 1.76 1.83 1.93 1.92 1.84 1.78 1.73 1.82 1.81 1.75 1.72 1.70 1.73 1.80 1.77 1.73 1.62 1.45 1.27 1.19 1.17 1.12 1.16 1.14 1.09 1.03 1.08 1.08 1.07 1.05 1.10 1.19 1.19 1.16 1.20
1.50 1.53 1.59 1.62 1.62 1.65 1.97 2.03 1.93 1.88 1.90 1.88 1.80 1.69 1.62 1.70 1.68 1.72 1.75 1.75 1.83 1.93 2.02 1.94 1.73 1.47 1.16 1.00 1.00 1.13 1.28 1.39 1.33 1.03 1.03 0.98 0.93 1.00 0.98 1.01 1.18 1.22 1.23
1.60 1.67 1.73 1.76 1.79 1.85 1.99 1.89 1.89 1.74 1.71 1.68 1.59 1.50 1.43 1.38 1.44 1.29 1.43 1.58 1.61 1.73 1.80 1.74 1.59 1.27 1.08 1.01 1.18 1.35 1.35 1.36 1.20 1.01 1.14 1.21 1.05 1.00 0.95 1.04 1.21 1.12 1.12
1.72 1.80 1.88 1.89 1.84 1.85 1.84 1.65 1.64 1.52 1.43 1.36 1.31 1.28 1.25 1.20 1.20 1.26 1.30 1.39 1.32 1.26 1.22 1.17 1.16 1.11 1.10 1.16 1.34 1.55 1.57 1.53 1.29 1.11 1.15 1.33 1.15 1.05 0.96 1.00 1.15 1.09 1.10
1.74 1.74 1.75 1.70 1.59 1.53 1.54 1.39 1.33 1.23 1.25 1.20 1.11 1.10 1.13 1.08 1.26 1.47 1.48 1.45 1.27 1.14 1.16 1.20 1.25 1.29 1.41 1.45 1.48 1.64 1.77 1.87 1.70 1.32 1.14 1.19 1.09 1.03 1.01 1.00 1.04 1.13 1.07
1.48 1.37 1.29 1.23 1.16 1.08 1.16 1.20 1.21 1.08 1.08 1.06 1.04 1.03 1.17 1.17 1.36 1.54 1.49 1.50 1.38 1.15 1.12 1.16 1.15 1.14 1.13 1.22 1.41 1.42 1.66 2.04 1.86 1.54 1.12 1.20 1.23 1.31 1.53 1.14 0.98 0.97 0.98